period_start,C,m1,H,J0,J1,J2,J3,J4,J5,JA,JB,JC,JD,JJ,JK,JN,#
2017-02-27 00:03:39,0.16,9.82,0.00,19.58,23.02,27.17,14.95,49.73,1028.85,2039.99,1244.08,1515.05,1699.65,600.20,610.53,46.37,0000 0000 0000 0000 000000
2017-02-27 00:08:41,0.16,9.83,0.00,19.60,23.00,27.16,14.93,49.83,1028.85,2039.99,1243.22,1514.46,1698.95,599.88,610.07,46.42,0000 0000 0000 0000 000000
2017-02-27 00:13:42,0.14,9.84,0.00,19.61,23.00,27.17,14.87,49.85,1028.98,2039.99,1242.30,1513.90,1698.10,599.83,610.08,46.47,0000 0000 0000 0000 000000
2017-02-27 00:18:43,0.18,9.84,0.00,19.59,22.99,27.15,14.90,49.81,1029.12,2039.98,1241.42,1513.08,1697.36,600.17,610.53,46.52,0000 0000 0000 0000 000000
2017-02-27 00:23:45,0.18,9.85,0.00,19.58,22.99,27.17,14.90,50.03,1029.25,2039.99,1240.47,1512.48,1696.63,599.72,610.22,46.57,0000 0000 0000 0000 000000
2017-02-27 00:28:46,0.11,9.86,0.00,19.62,22.98,27.16,15.00,50.28,1029.30,2039.99,1239.55,1511.91,1695.92,600.24,610.76,46.62,0000 0000 0000 0000 000000
2017-02-27 00:33:48,0.19,9.87,0.00,19.63,22.97,27.14,14.89,50.29,1029.31,2039.99,1238.54,1511.07,1695.06,599.98,610.42,46.67,0000 0000 0000 0000 000000
2017-02-27 00:38:49,0.19,9.88,0.00,19.65,22.97,27.15,14.89,50.14,1029.31,2039.99,1237.57,1510.41,1694.27,599.76,610.14,46.72,0000 0000 0000 0000 000000
2017-02-27 00:43:50,0.15,9.88,0.00,19.66,22.97,27.16,14.93,50.32,1029.32,2039.99,1236.54,1509.84,1693.54,599.94,610.30,46.78,0000 0000 0000 0000 000000
2017-02-27 00:48:51,0.20,9.89,0.00,19.67,22.97,27.16,14.89,50.18,1029.33,2039.99,1235.43,1508.88,1692.63,600.09,610.37,46.83,0000 0000 0000 0000 000000
2017-02-27 00:53:52,0.38,9.91,0.00,19.69,22.97,27.16,14.89,50.43,1029.34,2039.99,1233.47,1507.52,1690.91,599.83,610.17,46.88,0000 0000 0000 0000 000000
2017-02-27 00:58:53,0.33,9.93,0.00,19.73,22.97,27.19,14.97,50.42,1029.34,2040.00,1231.51,1506.01,1689.31,600.27,610.51,46.93,0000 0000 0000 0000 000000
2017-02-27 01:03:55,0.37,9.95,0.00,19.74,22.97,27.17,15.00,50.47,1029.37,2040.00,1229.55,1504.56,1687.67,600.32,610.52,46.98,0000 0000 0000 0000 000000
2017-02-27 01:08:56,0.28,9.97,0.00,19.76,22.97,27.19,14.91,50.48,1029.37,2040.00,1227.76,1503.34,1686.23,599.59,609.99,47.03,0000 0000 0000 0000 000000
2017-02-27 01:13:58,0.28,9.98,0.00,19.79,22.97,27.20,14.96,50.59,1029.38,2040.00,1226.27,1502.06,1684.87,600.24,610.43,47.08,0000 0000 0000 0000 000000
2017-02-27 01:18:59,0.33,10.00,0.00,19.81,22.99,27.21,14.94,50.63,1029.66,2040.00,1224.59,1500.73,1683.46,600.26,610.35,47.13,0000 0000 0000 0000 000000
2017-02-27 01:24:00,0.31,10.01,0.00,19.83,22.99,27.23,14.92,50.57,1029.65,2040.00,1222.89,1499.50,1681.89,599.89,610.03,47.18,0000 0000 0000 0000 000000
2017-02-27 01:29:01,0.31,10.03,0.00,19.85,22.99,27.24,14.89,50.66,1029.52,2040.00,1221.22,1498.04,1680.34,600.03,610.23,47.23,0000 0000 0000 0000 000000
2017-02-27 01:34:03,0.36,10.04,0.00,19.88,23.00,27.28,14.88,50.46,1029.62,2040.00,1219.37,1496.59,1678.67,599.80,609.95,47.28,0000 0000 0000 0000 000000
2017-02-27 01:39:04,0.31,10.06,0.00,19.90,23.02,27.28,14.89,50.50,1029.75,2040.00,1217.53,1495.24,1677.15,600.07,610.20,47.33,0000 0000 0000 0000 000000
2017-02-27 01:44:06,0.31,10.08,0.00,19.91,23.03,27.29,14.92,50.37,1029.80,2040.00,1215.97,1493.89,1675.67,600.25,610.26,47.38,0000 0000 0000 0000 000000
2017-02-27 01:49:07,0.28,10.09,0.00,19.94,23.04,27.31,15.01,50.38,1029.80,2039.99,1214.63,1492.66,1674.33,600.14,610.24,47.43,0000 0000 0000 0000 000000
2017-02-27 01:54:08,0.26,10.11,0.00,19.96,23.06,27.34,14.86,50.17,1029.81,2039.98,1213.20,1491.51,1672.92,599.99,610.03,47.48,0000 0000 0000 0000 000000
2017-02-27 01:59:09,0.29,10.12,0.00,19.98,23.07,27.37,14.93,50.32,1029.81,2039.99,1211.73,1490.38,1671.67,599.87,609.85,47.53,0000 0000 0000 0000 000000
2017-02-27 02:04:11,0.24,10.13,0.00,20.00,23.09,27.39,14.91,50.23,1029.81,2039.98,1210.35,1489.32,1670.48,599.93,609.79,47.58,0000 0000 0000 0000 000000
2017-02-27 02:09:12,0.22,10.15,0.00,20.02,23.10,27.39,14.90,50.28,1029.81,2039.99,1209.00,1488.42,1669.49,599.81,609.77,47.64,0000 0000 0000 0000 000000
2017-02-27 02:14:14,0.18,10.16,0.00,20.05,23.12,27.42,14.85,50.31,1029.86,2039.98,1207.91,1487.71,1668.56,599.59,609.46,47.69,0000 0000 0000 0000 000000
2017-02-27 02:19:15,0.17,10.17,0.00,20.08,23.14,27.43,14.95,50.22,1029.90,2039.93,1206.81,1486.91,1667.67,600.27,610.09,47.74,0000 0000 0000 0000 000000
2017-02-27 02:24:17,0.16,10.17,0.00,20.10,23.15,27.44,14.88,50.38,1030.06,2039.72,1205.72,1486.06,1666.82,600.16,610.00,47.79,0000 0000 0000 0000 000000
2017-02-27 02:29:18,0.16,10.18,0.00,20.12,23.17,27.46,14.88,50.52,1030.22,2039.41,1204.62,1485.30,1665.97,600.09,610.00,47.84,0000 0000 0000 0000 000000
2017-02-27 02:34:20,0.17,10.19,0.00,20.14,23.19,27.46,14.87,50.50,1030.27,2039.31,1203.63,1484.67,1665.08,599.65,609.64,47.89,0000 0000 0000 0000 000000
2017-02-27 02:39:21,0.14,10.20,0.00,20.17,23.21,27.48,14.93,50.47,1030.29,2039.05,1202.55,1483.90,1664.17,600.17,609.99,47.94,0000 0000 0000 0000 000000
2017-02-27 02:44:22,0.20,10.21,0.00,20.19,23.23,27.50,14.86,50.62,1030.29,2039.03,1201.45,1483.08,1663.33,599.76,609.64,47.99,0000 0000 0000 0000 000000
2017-02-27 02:49:24,0.18,10.21,0.00,20.21,23.25,27.53,14.92,50.73,1030.29,2039.02,1200.49,1482.45,1662.74,599.87,609.61,48.04,0000 0000 0000 0000 000000
2017-02-27 02:54:25,0.15,10.22,0.00,20.25,23.28,27.54,14.93,50.64,1030.30,2039.01,1199.54,1481.75,1661.86,600.04,609.75,48.09,0000 0000 0000 0000 000000
2017-02-27 02:59:26,0.17,10.23,0.00,20.28,23.30,27.56,14.93,50.72,1030.31,2039.00,1198.51,1480.95,1660.91,600.01,609.72,48.14,0000 0000 0000 0000 000000
2017-02-27 03:04:28,0.23,10.25,0.00,20.31,23.32,27.57,14.90,50.70,1030.34,2038.99,1197.31,1480.01,1659.84,599.85,609.54,48.19,0000 0000 0000 0000 000000
2017-02-27 03:09:29,0.33,10.26,0.00,20.34,23.34,27.61,14.95,50.62,1030.64,2038.99,1195.78,1478.81,1658.54,600.26,610.03,48.24,0000 0000 0000 0000 000000
2017-02-27 03:14:30,0.30,10.28,0.00,20.38,23.37,27.61,14.86,50.67,1030.72,2038.97,1194.13,1477.56,1657.04,600.03,609.84,48.29,0000 0000 0000 0000 000000
2017-02-27 03:19:31,0.31,10.29,0.00,20.38,23.39,27.63,14.89,50.73,1030.77,2038.92,1192.39,1476.23,1655.59,599.94,609.74,48.34,0000 0000 0000 0000 000000
2017-02-27 03:24:33,0.29,10.31,0.00,20.41,23.42,27.67,14.91,50.68,1030.78,2038.87,1190.76,1474.98,1654.22,600.05,609.62,48.39,0000 0000 0000 0000 000000
2017-02-27 03:29:34,0.22,10.32,0.00,20.44,23.44,27.68,14.91,50.62,1030.78,2038.50,1189.23,1473.78,1652.84,600.01,609.62,48.44,0000 0000 0000 0000 000000
2017-02-27 03:34:35,0.23,10.33,0.00,20.47,23.46,27.71,14.92,50.62,1030.78,2038.13,1187.83,1472.69,1651.63,600.08,609.65,48.49,0000 0000 0000 0000 000000
2017-02-27 03:39:37,0.24,10.34,0.00,20.49,23.49,27.74,14.83,50.71,1030.78,2038.04,1186.56,1471.70,1650.41,599.78,609.24,48.55,0000 0000 0000 0000 000000
2017-02-27 03:44:38,0.21,10.36,0.00,20.54,23.51,27.76,14.82,50.63,1030.78,2038.01,1185.26,1470.84,1649.29,600.08,609.42,48.60,0000 0000 0000 0000 000000
2017-02-27 03:49:39,0.21,10.37,0.00,20.55,23.54,27.77,14.92,50.67,1030.78,2038.00,1184.02,1469.93,1648.22,599.91,609.24,48.65,0000 0000 0000 0000 000000
2017-02-27 03:54:40,0.24,10.38,0.00,20.57,23.56,27.81,14.86,50.56,1030.79,2038.00,1182.79,1468.99,1647.16,599.74,609.08,48.70,0000 0000 0000 0000 000000
2017-02-27 03:59:42,0.23,10.39,0.00,20.61,23.58,27.84,14.88,50.69,1030.81,2037.99,1181.60,1468.07,1646.09,600.33,609.61,48.75,0000 0000 0000 0000 000000
2017-02-27 04:04:43,0.22,10.40,0.00,20.62,23.61,27.85,14.97,50.58,1030.90,2037.98,1180.44,1467.18,1645.10,600.29,609.56,48.80,0000 0000 0000 0000 000000
2017-02-27 04:09:44,0.22,10.41,0.00,20.65,23.63,27.87,14.87,50.63,1031.00,2037.97,1179.30,1466.29,1644.12,599.91,609.21,48.85,0000 0000 0000 0000 000000
2017-02-27 04:14:46,0.19,10.43,0.00,20.70,23.65,27.90,14.86,50.77,1031.13,2037.93,1178.14,1465.48,1643.14,599.86,609.09,48.90,0000 0000 0000 0000 000000
2017-02-27 04:19:47,0.17,10.44,0.00,20.72,23.68,27.92,14.88,50.68,1031.25,2037.84,1177.11,1464.69,1642.18,600.05,609.28,48.95,0000 0000 0000 0000 000000
2017-02-27 04:24:48,0.12,10.44,0.00,20.75,23.70,27.95,14.93,50.58,1031.26,2037.39,1176.03,1463.95,1641.25,600.04,609.28,49.00,0000 0000 0000 0000 000000
2017-02-27 04:29:50,0.19,10.45,0.00,20.78,23.73,27.97,14.86,50.71,1031.26,2037.08,1174.89,1463.08,1640.37,600.00,609.18,49.05,0000 0000 0000 0000 000000
2017-02-27 04:34:51,0.22,10.46,0.00,20.82,23.76,28.00,14.90,50.65,1031.27,2037.03,1173.83,1462.17,1639.43,599.83,608.89,49.10,0000 0000 0000 0000 000000
2017-02-27 04:39:53,0.19,10.47,0.00,20.83,23.78,28.03,14.87,50.61,1031.29,2037.02,1172.81,1461.50,1638.54,600.01,609.09,49.15,0000 0000 0000 0000 000000
2017-02-27 04:44:54,0.14,10.48,0.00,20.84,23.81,28.05,14.92,50.53,1031.51,2037.01,1171.91,1460.84,1637.72,599.93,609.12,49.20,0000 0000 0000 0000 000000
2017-02-27 04:49:55,0.18,10.49,0.00,20.86,23.84,28.08,14.87,50.56,1031.70,2037.00,1170.95,1460.04,1636.87,600.08,609.38,49.25,0000 0000 0000 0000 000000
2017-02-27 04:54:57,0.20,10.50,0.00,20.86,23.87,28.11,14.85,50.58,1031.75,2036.99,1169.93,1459.28,1635.99,599.66,608.92,49.30,0000 0000 0000 0000 000000
2017-02-27 04:59:58,0.19,10.51,0.00,20.87,23.89,28.14,14.91,50.49,1031.75,2036.97,1168.97,1458.56,1635.08,599.89,609.14,49.35,0000 0000 0000 0000 000000
2017-02-27 05:04:59,0.13,10.52,0.00,20.90,23.91,28.15,14.82,50.49,1031.75,2036.82,1167.98,1457.89,1634.20,599.58,608.85,49.40,0000 0000 0000 0000 000000
2017-02-27 05:10:00,0.11,10.52,0.00,20.91,23.94,28.17,14.83,50.35,1031.77,2036.20,1166.98,1457.06,1633.31,599.92,609.07,49.46,0000 0000 0000 0000 000000
2017-02-27 05:15:01,0.20,10.53,0.00,20.93,23.96,28.21,14.91,50.33,1031.77,2036.07,1165.95,1456.33,1632.49,599.87,609.04,49.51,0000 0000 0000 0000 000000
2017-02-27 05:20:03,0.16,10.54,0.00,20.95,23.98,28.24,14.90,50.36,1031.78,2036.02,1164.91,1455.74,1631.72,600.12,609.31,49.56,0000 0000 0000 0000 000000
2017-02-27 05:25:04,0.16,10.55,0.00,20.95,24.01,28.23,14.92,50.34,1031.78,2036.00,1163.94,1455.01,1630.85,600.15,609.30,49.61,0000 0000 0000 0000 000000
2017-02-27 05:30:05,0.20,10.56,0.00,20.97,24.02,28.26,14.88,50.44,1031.85,2036.00,1162.97,1454.22,1630.03,599.87,608.94,49.66,0000 0000 0000 0000 000000
2017-02-27 05:35:07,0.20,10.57,0.00,20.98,24.05,28.29,14.87,50.40,1032.01,2036.00,1161.95,1453.63,1629.15,600.06,609.13,49.71,0000 0000 0000 0000 000000
2017-02-27 05:40:08,0.18,10.58,0.00,20.99,24.06,28.31,14.90,50.51,1032.13,2036.00,1160.92,1452.90,1628.37,600.00,609.22,49.76,0000 0000 0000 0000 000000
2017-02-27 05:45:09,0.20,10.59,0.00,20.99,24.08,28.32,14.87,50.44,1032.22,2035.99,1159.88,1452.07,1627.49,600.06,609.42,49.81,0000 0000 0000 0000 000000
2017-02-27 05:50:11,0.20,10.60,0.00,21.00,24.10,28.35,14.87,50.47,1032.22,2035.98,1158.89,1451.30,1626.69,599.92,609.20,49.86,0000 0000 0000 0000 000000
2017-02-27 05:55:12,0.15,10.61,0.00,21.03,24.12,28.35,14.91,50.51,1032.21,2035.97,1157.92,1450.70,1625.86,600.07,609.22,49.91,0000 0000 0000 0000 000000
2017-02-27 06:00:14,0.16,10.62,0.00,21.05,24.15,28.39,14.94,50.44,1032.24,2035.92,1156.92,1449.96,1625.00,600.00,609.26,49.96,0000 0000 0000 0000 000000
2017-02-27 06:05:15,0.21,10.63,0.00,21.06,24.17,28.42,14.91,50.45,1032.24,2035.84,1155.93,1449.12,1624.13,599.86,609.04,50.01,0000 0000 0000 0000 000000
2017-02-27 06:10:16,0.13,10.63,0.00,21.09,24.19,28.41,14.92,50.54,1032.24,2035.38,1154.92,1448.40,1623.27,600.15,609.36,50.06,0000 0000 0000 0000 000000
2017-02-27 06:15:17,0.14,10.64,0.00,21.13,24.22,28.39,14.97,50.58,1032.27,2035.12,1154.00,1447.77,1622.45,599.96,608.95,50.11,0000 0000 0000 0000 000000
2017-02-27 06:20:18,0.18,10.65,0.00,21.20,24.24,28.42,14.85,50.56,1032.30,2035.05,1153.04,1447.01,1621.59,599.95,608.89,50.16,0000 0000 0000 0000 000000
2017-02-27 06:25:19,0.19,10.66,0.00,21.20,24.27,28.49,14.84,50.46,1032.48,2035.00,1152.01,1446.17,1620.78,599.95,608.98,50.21,0000 0000 0000 0000 000000
2017-02-27 06:30:21,0.20,10.67,0.00,21.12,24.29,28.52,14.87,50.56,1032.66,2035.00,1151.06,1445.48,1619.89,599.82,609.07,50.26,0000 0000 0000 0000 000000
2017-02-27 06:35:22,0.15,10.68,0.00,21.01,24.30,28.52,14.82,50.44,1032.68,2035.00,1150.18,1444.90,1619.04,599.85,609.39,50.31,0000 0000 0000 0000 000000
2017-02-27 06:40:24,0.21,10.69,0.00,20.96,24.30,28.47,14.99,50.48,1032.72,2034.98,1149.26,1444.09,1618.19,600.24,609.94,50.37,0000 0000 0000 0000 000000
2017-02-27 06:45:25,0.19,10.69,0.00,20.92,24.30,28.40,14.91,50.41,1032.73,2034.97,1148.35,1443.57,1617.53,599.95,609.73,50.42,0000 0000 0000 0000 000000
2017-02-27 06:50:26,0.14,10.70,0.00,20.91,24.30,28.34,14.87,50.41,1032.73,2034.98,1147.38,1442.96,1616.79,600.13,609.86,50.47,0000 0000 0000 0000 000000
2017-02-27 06:55:27,0.20,10.71,0.00,20.92,24.30,28.27,14.93,50.34,1032.74,2034.98,1146.42,1442.16,1616.01,600.05,609.86,50.52,0000 0000 0000 0000 000000
2017-02-27 07:00:28,0.19,10.72,0.00,20.89,24.28,28.24,14.92,50.32,1032.75,2034.98,1145.49,1441.61,1615.18,599.74,609.56,50.57,0000 0000 0000 0000 000000
2017-02-27 07:05:30,0.16,10.73,0.00,20.89,24.27,28.18,14.82,50.34,1032.75,2034.99,1144.52,1440.99,1614.42,599.62,609.45,50.62,0000 0000 0000 0000 000000
2017-02-27 07:10:31,0.21,10.74,0.00,20.90,24.26,28.16,14.89,50.33,1032.80,2034.98,1143.50,1440.19,1613.56,600.28,609.99,50.67,0000 0000 0000 0000 000000
2017-02-27 07:15:32,0.17,10.75,0.00,20.90,24.25,28.16,14.84,50.36,1032.93,2034.99,1142.55,1439.63,1612.81,600.23,610.19,50.72,0000 0000 0000 0000 000000
2017-02-27 07:20:33,0.15,10.76,0.00,20.90,24.23,28.15,14.90,50.22,1033.10,2034.99,1141.61,1438.98,1612.02,599.95,609.92,50.77,0000 0000 0000 0000 000000
2017-02-27 07:25:35,0.20,10.77,0.00,20.91,24.22,28.15,14.90,50.23,1033.20,2034.99,1140.71,1438.16,1611.25,600.33,610.36,50.82,0000 0000 0000 0000 000000
2017-02-27 07:30:36,0.16,10.78,0.00,20.89,24.20,28.11,14.83,50.22,1033.22,2034.99,1139.81,1437.72,1610.54,599.57,609.75,50.87,0000 0000 0000 0000 000000
2017-02-27 07:35:37,0.13,10.79,0.00,20.92,24.19,28.12,14.88,50.20,1033.22,2034.99,1138.94,1437.01,1609.86,599.67,609.68,50.92,0000 0000 0000 0000 000000
2017-02-27 07:40:38,0.21,10.80,0.00,20.92,24.17,28.10,14.82,50.23,1033.22,2034.99,1138.00,1436.27,1609.04,599.63,609.68,50.97,0000 0000 0000 0000 000000
2017-02-27 07:45:39,0.16,10.80,0.00,20.91,24.16,28.11,14.89,50.12,1033.22,2034.99,1137.07,1435.84,1608.27,600.73,610.76,51.02,0000 0000 0000 0000 000000
2017-02-27 07:50:40,0.19,10.81,0.00,20.90,24.15,28.12,14.91,50.21,1033.22,2034.99,1136.16,1435.05,1607.59,600.27,610.28,51.07,0000 0000 0000 0000 000000
2017-02-27 07:55:42,0.19,10.82,0.00,20.92,24.14,28.15,14.89,50.14,1033.24,2034.99,1135.33,1434.44,1606.82,600.09,610.21,51.12,0000 0000 0000 0000 000000
2017-02-27 08:00:43,0.14,10.83,0.00,20.93,24.12,28.15,14.90,50.03,1033.25,2035.00,1134.39,1433.92,1606.03,599.85,610.00,51.17,0000 0000 0000 0000 000000
2017-02-27 08:05:44,0.21,10.84,0.00,20.93,24.12,28.12,14.87,49.98,1033.48,2035.00,1133.46,1433.10,1605.25,599.94,610.09,51.22,0000 0000 0000 0000 000000
2017-02-27 08:10:46,0.18,10.85,0.00,20.94,24.10,28.12,14.90,50.08,1033.59,2035.00,1132.52,1432.64,1604.65,600.01,610.24,51.27,0000 0000 0000 0000 000000
2017-02-27 08:15:47,0.13,10.86,0.00,20.92,24.10,28.11,14.84,50.02,1033.69,2035.01,1131.62,1432.00,1603.97,599.70,610.10,51.33,0000 0000 0000 0000 000000
2017-02-27 08:20:49,0.20,10.87,0.00,20.95,24.09,28.12,14.88,49.98,1033.70,2035.02,1130.70,1431.33,1603.15,600.15,610.35,51.38,0000 0000 0000 0000 000000
2017-02-27 08:25:50,0.14,10.88,0.00,20.94,24.07,28.14,14.84,49.98,1033.70,2035.05,1129.79,1430.89,1602.51,599.79,610.13,51.43,0000 0000 0000 0000 000000
2017-02-27 08:30:51,0.17,10.89,0.00,20.91,24.07,28.14,14.99,50.13,1033.70,2035.04,1128.86,1430.08,1601.80,600.20,610.53,51.48,0000 0000 0000 0000 000000
2017-02-27 08:35:52,0.18,10.89,0.00,20.94,24.06,28.12,14.94,50.08,1033.71,2035.07,1127.93,1429.59,1601.04,599.92,610.33,51.53,0000 0000 0000 0000 000000
2017-02-27 08:40:54,0.17,10.90,0.00,20.91,24.05,28.14,14.84,50.02,1033.71,2035.05,1126.92,1428.96,1600.24,599.86,610.26,51.58,0000 0000 0000 0000 000000
2017-02-27 08:45:55,0.21,10.92,0.00,20.91,24.05,28.12,14.96,49.94,1033.72,2035.11,1125.94,1428.15,1599.55,600.50,610.85,51.63,0000 0000 0000 0000 000000
2017-02-27 08:50:57,0.16,10.92,0.00,20.91,24.04,28.12,14.88,50.10,1033.73,2035.15,1124.99,1427.66,1598.95,599.70,610.07,51.68,0000 0000 0000 0000 000000
2017-02-27 08:55:58,0.16,10.93,0.00,20.89,24.03,28.14,14.92,50.08,1033.76,2035.07,1124.02,1426.97,1598.11,600.05,610.44,51.73,0000 0000 0000 0000 000000
2017-02-27 09:00:59,0.22,10.94,0.00,20.90,24.02,28.12,14.93,49.96,1033.94,2035.15,1123.06,1426.20,1597.42,600.10,610.65,51.78,0000 0000 0000 0000 000000
2017-02-27 09:06:01,0.18,10.95,0.00,20.92,24.02,28.14,14.91,50.01,1034.15,2035.11,1122.04,1425.61,1596.69,600.00,610.56,51.83,0000 0000 0000 0000 000000
2017-02-27 09:11:02,0.20,10.96,0.00,20.89,24.02,28.13,14.89,50.08,1034.19,2035.35,1121.07,1425.00,1596.01,599.83,610.56,51.88,0000 0000 0000 0000 000000
2017-02-27 09:16:03,0.22,10.97,0.00,20.87,24.01,28.11,14.89,50.08,1034.19,2035.43,1120.15,1424.26,1595.18,599.74,610.39,51.93,0000 0000 0000 0000 000000
2017-02-27 09:21:05,0.20,10.98,0.00,20.87,24.00,28.13,14.93,50.07,1034.19,2035.56,1119.20,1423.80,1594.49,599.76,610.57,51.98,0000 0000 0000 0000 000000
2017-02-27 09:26:06,0.17,10.99,0.00,20.86,24.00,28.09,14.88,50.11,1034.19,2035.67,1118.25,1423.03,1593.77,599.97,610.74,52.03,0000 0000 0000 0000 000000
2017-02-27 09:31:08,0.20,11.00,0.00,20.85,24.00,28.09,14.90,50.05,1034.21,2035.73,1117.40,1422.43,1593.02,599.77,610.41,52.08,0000 0000 0000 0000 000000
2017-02-27 09:36:09,0.16,11.01,0.00,20.85,23.99,28.09,14.93,49.98,1034.22,2035.84,1116.56,1421.96,1592.27,600.23,611.08,52.13,0000 0000 0000 0000 000000
2017-02-27 09:41:10,0.20,11.02,0.00,20.85,23.97,28.10,14.91,50.05,1034.29,2035.78,1115.61,1421.13,1591.64,600.21,611.07,52.18,0000 0000 0000 0000 000000
2017-02-27 09:46:12,0.14,11.03,0.00,20.82,23.97,28.06,14.88,50.02,1034.58,2035.71,1114.69,1420.67,1590.95,599.69,610.77,52.24,0000 0000 0000 0000 000000
2017-02-27 09:51:13,0.17,11.04,0.00,20.81,23.97,28.09,14.97,50.09,1034.66,2035.82,1113.82,1420.02,1590.11,599.75,610.82,52.29,0000 0000 0000 0000 000000
2017-02-27 09:56:14,0.20,11.05,0.00,20.81,23.97,28.05,14.89,50.15,1034.68,2035.94,1112.94,1419.44,1589.59,600.00,611.21,52.34,0000 0000 0000 0000 000000
2017-02-27 10:01:16,0.12,11.06,0.00,20.77,23.95,28.07,14.92,50.12,1034.68,2035.98,1112.06,1418.97,1588.95,599.80,610.97,52.39,0000 0000 0000 0000 000000
2017-02-27 10:06:17,0.22,11.07,0.00,20.76,23.95,28.04,14.93,50.09,1034.68,2035.96,1111.18,1418.19,1588.11,599.82,611.08,52.44,0000 0000 0000 0000 000000
2017-02-27 10:11:19,0.17,11.07,0.00,20.79,23.94,28.04,14.91,50.11,1034.68,2035.97,1110.33,1417.77,1587.44,600.04,611.24,52.49,0000 0000 0000 0000 000000
2017-02-27 10:16:20,0.17,11.08,0.00,20.77,23.92,28.03,14.92,50.20,1034.72,2035.97,1109.45,1417.04,1586.80,599.93,611.36,52.54,0000 0000 0000 0000 000000
2017-02-27 10:21:21,0.20,11.09,0.00,20.73,23.92,28.00,14.90,50.22,1034.84,2035.97,1108.53,1416.46,1586.03,600.02,611.53,52.59,0000 0000 0000 0000 000000
2017-02-27 10:26:23,0.15,11.10,0.00,20.72,23.91,28.01,14.92,50.14,1035.08,2035.96,1107.50,1415.95,1585.23,599.85,611.49,52.64,0000 0000 0000 0000 000000
2017-02-27 10:31:24,0.21,11.11,0.00,20.72,23.90,28.01,14.88,50.14,1035.11,2035.98,1106.57,1415.11,1584.58,599.79,611.37,52.69,0000 0000 0000 0000 000000
2017-02-27 10:36:25,0.16,11.12,0.00,20.70,23.90,27.97,14.91,50.08,1035.17,2035.98,1105.60,1414.66,1583.94,600.22,611.75,52.74,0000 0000 0000 0000 000000
2017-02-27 10:41:26,0.16,11.13,0.00,20.68,23.88,27.97,14.91,50.23,1035.17,2035.99,1104.67,1414.02,1583.12,599.77,611.59,52.79,0000 0000 0000 0000 000000
2017-02-27 10:46:28,0.21,11.14,0.00,20.68,23.87,27.98,14.90,50.39,1035.17,2035.98,1103.72,1413.31,1582.42,600.00,611.65,52.84,0000 0000 0000 0000 000000
2017-02-27 10:51:29,0.10,11.15,0.00,20.64,23.87,27.94,14.99,50.27,1035.17,2035.99,1102.82,1412.93,1581.84,599.66,611.47,52.89,0000 0000 0000 0000 000000
2017-02-27 10:56:30,0.20,11.16,0.00,20.63,23.85,27.92,14.86,50.21,1035.17,2035.99,1101.96,1412.11,1581.05,599.61,611.45,52.94,0000 0000 0000 0000 000000
2017-02-27 11:01:31,0.19,11.16,0.00,20.64,23.85,27.92,14.97,50.16,1035.19,2035.99,1101.04,1411.69,1580.33,600.27,612.06,52.99,0000 0000 0000 0000 000000
2017-02-27 11:06:33,0.16,11.18,0.00,20.61,23.83,27.92,14.88,50.14,1035.25,2035.99,1100.10,1411.02,1579.74,599.75,611.65,53.04,0000 0000 0000 0000 000000
2017-02-27 11:11:34,0.20,11.18,0.00,20.60,23.82,27.89,15.00,50.25,1035.30,2035.99,1099.15,1410.41,1579.02,600.09,612.04,53.09,0000 0000 0000 0000 000000
2017-02-27 11:16:35,0.15,11.19,0.00,20.61,23.81,27.88,14.93,50.26,1035.35,2035.99,1098.23,1409.96,1578.29,599.98,612.03,53.14,0000 0000 0000 0000 000000
2017-02-27 11:21:37,0.21,11.20,0.00,20.60,23.80,27.88,14.96,50.31,1035.61,2035.99,1097.29,1409.16,1577.66,600.02,612.11,53.19,0000 0000 0000 0000 000000
2017-02-27 11:26:38,0.15,11.21,0.00,20.56,23.79,27.84,15.00,50.33,1035.65,2035.99,1096.36,1408.77,1577.00,599.97,612.27,53.25,0000 0000 0000 0000 000000
2017-02-27 11:31:39,0.19,11.22,0.00,20.54,23.77,27.85,14.96,50.35,1035.62,2036.00,1095.48,1408.04,1576.22,599.92,612.30,53.30,0000 0000 0000 0000 000000
2017-02-27 11:36:40,0.17,11.23,0.00,20.53,23.76,27.84,14.91,50.38,1035.65,2036.00,1094.55,1407.64,1575.66,599.68,611.91,53.35,0000 0000 0000 0000 000000
2017-02-27 11:41:41,0.15,11.24,0.00,20.51,23.75,27.83,14.96,50.26,1035.66,2036.04,1093.67,1407.02,1575.01,600.22,612.55,53.40,0000 0000 0000 0000 000000
2017-02-27 11:46:43,0.20,11.24,0.00,20.47,23.74,27.80,14.94,50.24,1035.66,2036.04,1092.72,1406.50,1574.26,600.27,612.67,53.45,0000 0000 0000 0000 000000
2017-02-27 11:51:44,0.14,11.26,0.00,20.47,23.72,27.77,14.90,50.30,1035.66,2036.14,1091.83,1405.98,1573.65,599.54,611.96,53.50,0000 0000 0000 0000 000000
2017-02-27 11:56:45,0.21,11.27,0.00,20.48,23.71,27.76,14.93,50.38,1035.66,2036.23,1090.92,1405.27,1572.98,599.78,612.25,53.55,0000 0000 0000 0000 000000
2017-02-27 12:01:46,0.16,11.27,0.00,20.44,23.70,27.75,14.94,50.32,1035.66,2036.18,1089.97,1404.83,1572.18,600.08,612.38,53.60,0000 0000 0000 0000 000000
2017-02-27 12:06:47,0.25,11.29,0.00,20.42,23.68,27.73,14.96,50.49,1035.66,2036.57,1089.07,1404.06,1571.68,600.09,612.78,53.65,0000 0000 0000 0000 000000
2017-02-27 12:11:49,0.19,11.30,0.00,20.42,23.67,27.73,14.95,50.38,1035.66,2036.85,1088.18,1403.78,1571.01,599.88,612.48,53.70,0000 0000 0000 0000 000000
2017-02-27 12:16:50,0.20,11.31,0.00,20.37,23.65,27.70,14.89,50.41,1035.66,2036.90,1087.30,1403.05,1570.25,599.75,612.38,53.75,0000 0000 0000 0000 000000
2017-02-27 12:21:51,0.19,11.31,0.00,20.36,23.65,27.68,14.96,50.48,1035.66,2036.89,1086.56,1402.49,1569.71,600.15,612.88,53.80,0000 0000 0000 0000 000000
2017-02-27 12:26:52,0.12,11.32,0.00,20.35,23.62,27.66,14.97,50.38,1035.67,2036.95,1085.73,1402.00,1569.01,600.10,612.73,53.85,0000 0000 0000 0000 000000
2017-02-27 12:31:54,0.18,11.33,0.00,20.36,23.62,27.66,14.96,50.45,1035.68,2036.97,1084.93,1401.36,1568.32,599.76,612.46,53.90,0000 0000 0000 0000 000000
2017-02-27 12:36:55,0.12,11.34,0.00,20.32,23.60,27.63,14.93,50.47,1035.68,2036.98,1084.06,1400.97,1567.79,599.74,612.53,53.95,0000 0000 0000 0000 000000
2017-02-27 12:41:57,0.21,11.35,0.00,20.27,23.58,27.62,14.97,50.33,1035.69,2036.99,1083.20,1400.26,1567.03,600.02,612.90,54.00,0000 0000 0000 0000 000000
2017-02-27 12:46:58,0.14,11.36,0.00,20.27,23.57,27.62,14.96,50.49,1035.67,2036.99,1082.42,1399.96,1566.43,600.00,612.73,54.05,0000 0000 0000 0000 000000
2017-02-27 12:52:00,0.18,11.36,0.00,20.26,23.55,27.57,15.06,50.45,1035.72,2036.99,1081.61,1399.20,1565.92,600.33,613.17,54.10,0000 0000 0000 0000 000000